Temp
57 57 57 57 57 57 57 57 58 58 58 59 60 60 60 60 60 58 63 66 60 56 60 65 67 65 65 66 60 61 65 66 68 60 55 52 52 53 51 57 54 52 56 59 61 58 55 71 69 61 63 66 77 79
57 57 57 56 57 56 57 57 57 57 58 58 59 60 60 60 59 58 58 65 67 57 59 67 68 71 70 71 66 66 61 62 61 57 54 54 51 52 49 48 58 55 59 57 57 57 63 66 64 67 67 64 63 76
56 56 56 56 56 56 56 57 57 57 58 58 59 60 59 59 59 58 58 59 61 57 60 63 64 74 79 79 80 63 67 70 66 61 56 54 53 53 47 50 56 60 63 62 58 62 65 67 70 70 70 68 73 79
55 56 55 56 56 56 56 57 57 57 57 58 59 59 59 59 58 58 56 60 58 54 51 64 79 70 79 84 82 80 77 79 76 63 58 54 55 58 51 53 54 58 58 62 62 61 66 70 73 74 75 76 74 85
54 55 55 56 56 55 56 56 57 57 57 58 58 59 59 59 57 57 58 59 59 53 48 52 63 72 80 83 81 81 79 74 67 63 58 61 65 62 56 56 54 60 58 60 56 60 60 64 72 76 74 79 85 84
54 54 55 55 55 55 55 56 57 57 57 58 58 59 58 58 57 55 52 61 60 57 49 49 69 72 79 81 78 76 74 71 69 65 65 69 73 64 57 57 60 63 71 69 60 65 63 67 73 73 77 86 84 79
54 54 55 55 55 55 55 56 56 57 57 57 58 57 57 56 57 53 51 54 56 59 51 51 59 75 78 77 76 73 77 70 69 67 66 69 68 68 65 60 60 62 68 73 67 66 61 67 71 86 87 87 79 82
55 55 55 55 55 55 55 56 57 57 57 57 57 56 56 54 54 53 58 56 58 55 56 51 58 67 78 68 66 73 68 69 67 66 67 66 69 67 62 61 64 67 69 72 75 76 73 73 78 84 85 86 83 81
54 54 55 55 55 55 55 56 56 56 56 56 56 55 55 53 51 55 58 58 58 54 48 55 55 55 72 68 70 69 70 62 69 65 66 67 64 61 64 60 64 67 67 71 71 70 74 72 75 77 83 80 79 76
54 54 54 54 54 55 55 56 56 56 55 55 54 51 49 54 58 57 53 50 50 52 53 50 61 57 67 65 63 65 67 63 59 65 69 65 64 69 66 69 67 69 72 72 69 70 71 75 71 82 79 64 69 69
54 54 54 54 54 55 55 55 55 55 54 52 50 50 54 58 54 51 48 46 50 48 55 57 59 57 69 59 59 62 62 64 58 63 63 61 62 68 67 65 65 67 70 69 69 70 72 80 79 69 64 63 60 60
54 54 54 54 54 54 55 55 55 53 53 53 53 54 53 50 49 46 46 48 47 50 60 59 61 64 65 65 57 60 61 63 59 64 64 60 64 71 66 66 67 68 75 72 71 79 81 80 74 69 66 63 65 69
54 54 54 54 54 54 55 55 54 55 54 55 52 49 48 48 40 42 42 46 49 58 62 60 60 65 63 59 55 53 53 56 65 61 58 60 59 69 68 68 67 70 74 79 79 79 78 77 77 71 65 65 70 68
54 54 54 54 54 54 55 54 54 54 53 50 48 39 44 43 47 50 52 55 60 59 57 58 57 58 63 56 53 49 55 57 54 55 58 55 59 63 70 73 73 75 77 76 75 75 73 72 72 72 70 69 67 65
54 54 54 54 54 54 54 54 54 54 52 48 49 41 47 57 58 58 58 58 57 61 57 57 56 57 56 57 55 54 54 51 55 58 58 59 64 67 70 72 71 72 72 74 74 72 70 69 69 67 67 68 66 64
53 53 54 56 54 54 54 53 53 53 51 49 49 49 57 56 54 54 54 55 58 57 57 54 52 51 53 56 53 51 51 52 52 60 63 63 62 66 68 70 72 72 72 72 69 69 70 69 66 66 67 66 66 65
52 53 55 55 54 54 54 52 52 49 48 48 50 59 57 55 54 52 54 54 57 55 51 52 48 51 57 54 53 58 56 52 55 59 63 63 65 66 67 67 70 70 70 70 70 69 69 69 69 66 64 65 66 64
53 56 55 54 54 53 52 52 50 48 46 50 52 57 57 54 52 53 55 55 54 52 52 50 52 50 50 53 54 57 56 53 56 55 59 66 68 68 70 68 69 69 68 68 68 66 67 65 63 62 62 62 62 61
54 55 54 54 54 52 49 50 50 46 50 56 61 59 56 54 55 55 54 55 55 55 53 52 50 50 51 58 60 59 58 57 55 56 57 68 69 68 68 69 69 68 65 64 65 66 66 65 66 64 63 63 62 61
53 53 54 55 54 51 48 48 52 49 51 54 57 54 53 53 54 54 52 52 52 52 50 50 51 55 57 57 58 61 64 63 62 60 60 64 66 68 69 69 68 67 67 67 68 65 68 67 69 68 68 65 65 63
51 53 54 54 52 51 50 49 51 57 59 56 55 55 55 55 52 51 51 52 51 51 51 58 57 61 61 59 58 59 60 62 59 60 62 63 67 66 66 67 69 69 68 68 68 65 66 67 67 67 67 67 67 67
52 55 52 52 49 51 50 52 51 57 55 54 54 58 53 50 49 50 52 51 51 57 59 59 59 59 58 57 59 60 63 64 63 61 59 59 60 60 63 70 70 69 68 67 67 67 68 68 67 69 68 68 65 68
53 54 51 50 48 46 45 56 52 54 51 52 56 52 51 49 51 54 49 52 57 62 60 58 59 59 59 60 60 70 69 67 66 67 66 69 65 68 68 68 71 70 67 67 70 70 68 63 66 69 69 68 67 66
55 50 47 47 47 46 53 51 55 54 55 55 55 50 50 50 54 51 49 53 60 66 60 57 57 57 57 58 62 67 67 70 69 68 69 68 68 66 68 66 70 73 71 70 71 70 69 69 66 68 69 68 68 66
42 44 45 37 52 49 47 49 52 53 51 52 53 52 50 55 54 54 54 58 60 62 63 66 63 60 63 63 63 61 68 71 68 65 65 70 66 63 70 70 71 71 73 68 68 69 69 69 69 70 70 70 68 67
38 50 44 51 50 50 51 47 50 52 52 50 52 57 54 54 53 54 55 62 62 65 67 65 66 64 64 68 63 63 69 72 69 67 66 70 71 69 68 67 68 69 74 72 70 69 69 69 69 71 71 69 60 69
43 52 57 62 58 57 55 57 58 55 50 52 55 56 55 52 54 54 60 65 65 68 70 72 68 65 63 65 71 72 74 74 73 73 75 76 76 76 73 72 68 70 75 76 75 74 72 70 70 71 71 70 70 71
54 57 52 58 57 58 52 54 54 53 52 57 58 54 54 54 51 56 64 70 71 72 72 70 71 72 72 72 75 75 74 76 77 78 77 77 75 78 76 76 73 59 72 75 74 74 73 72 71 72 73 71 70 72
53 58 58 53 56 57 57 56 56 58 61 58 54 54 52 58 65 64 69 71 73 72 70 70 70 73 70 71 75 74 77 76 73 69 68 66 70 71 75 76 74 75 75 70 48 62 72 72 72 72 73 72 71 70
54 59 53 52 52 52 58 59 55 59 60 59 59 58 61 63 66 71 71 72 69 67 66 70 71 72 68 69 72 73 73 74 72 70 66 68 71 76 75 74 73 75 74 74 72 70 55 63 64 68 69 69 69 69
57 54 50 51 54 59 64 65 66 63 61 61 62 58 60 68 70 69 68 71 72 71 68 67 73 71 72 74 71 68 67 72 73 74 71 73 74 73 74 72 72 75 75 76 74 71 70 68 70 71 72 71 72 70
51 50 50 50 52 57 60 57 57 60 63 60 63 66 65 64 58 57 63 66 66 63 59 64 68 63 63 70 70 75 59 73 67 72 73 75 75 74 75 73 72 71 73 73 73 72 72 73 72 72 73 73 72 72
54 56 57 59 58 57 59 61 61 58 59 57 58 57 58 59 55 61 68 70 63 59 60 62 67 71 70 72 72 72 65 72 64 51 51 54 55 60 68 73 70 71 72 71 72 73 74 73 73 72 72 71 70 70
MSLP
1016.62 1016.92 1017.17 1017.23 1017.25 1017.28 1017.24 1017.11 1016.92 1016.83 1016.77 1016.67 1016.53 1016.49 1016.56 1016.55 1016.42 1016.52 1015.28 1014.95 1014.82 1013.48 1010.93 1010.54 1009.81 1008.98 1008.27 1007.60 1007.15 1006.88 1005.78 1004.53 1004.18 1004.98 1007.02 1008.92 1009.78 1010.22 1009.85 1008.53 1007.70 1007.15 1005.38 1002.80 1001.77 1001.85 1002.43 1001.70 1001.53 1002.66 1003.48 1003.34 1002.07 1000.12
1016.10 1016.41 1016.63 1016.83 1016.90 1016.91 1016.86 1016.76 1016.65 1016.61 1016.53 1016.43 1016.35 1016.32 1016.39 1016.40 1016.37 1016.40 1015.73 1014.92 1014.46 1014.05 1011.48 1010.16 1009.59 1008.89 1008.53 1007.96 1007.91 1007.14 1007.13 1006.46 1007.22 1008.27 1009.48 1009.60 1010.38 1010.86 1010.86 1010.50 1009.14 1007.85 1006.93 1006.25 1004.61 1003.03 1002.91 1002.76 1002.53 1002.87 1002.71 1003.02 1003.05 1001.38
1015.59 1015.93 1016.13 1016.37 1016.52 1016.54 1016.52 1016.40 1016.33 1016.32 1016.27 1016.20 1016.15 1016.18 1016.25 1016.23 1016.25 1016.30 1015.97 1015.61 1014.92 1013.84 1011.06 1009.35 1007.36 1006.29 1006.53 1006.50 1006.94 1007.20 1006.22 1005.90 1007.23 1008.87 1009.93 1010.12 1009.95 1010.44 1011.43 1010.55 1008.65 1007.47 1006.75 1006.14 1005.88 1005.28 1004.77 1004.10 1003.75 1001.70 999.63 1001.83 1003.27 1002.96
1015.10 1015.35 1015.70 1015.96 1016.02 1016.17 1016.12 1016.02 1015.90 1015.96 1016.04 1015.97 1015.95 1015.99 1016.07 1016.09 1016.10 1016.09 1015.99 1015.64 1015.55 1014.82 1012.68 1007.96 1006.37 1006.10 1005.21 1004.54 1004.90 1005.33 1005.42 1005.47 1005.93 1007.11 1008.23 1009.00 1008.66 1008.61 1009.51 1009.08 1008.17 1008.46 1007.59 1006.13 1006.13 1005.78 1003.83 1004.66 1004.87 1002.51 1001.40 1001.19 1002.47 1002.18
1014.51 1014.86 1015.24 1015.44 1015.59 1015.77 1015.74 1015.66 1015.54 1015.61 1015.76 1015.70 1015.74 1015.79 1015.90 1015.92 1015.94 1015.94 1015.67 1015.42 1015.40 1015.53 1013.76 1010.67 1008.13 1005.12 1004.24 1003.56 1003.64 1004.06 1004.57 1004.97 1005.57 1006.19 1006.74 1006.53 1006.06 1006.67 1007.26 1008.76 1008.68 1008.79 1007.42 1006.77 1006.69 1006.64 1005.84 1004.73 1003.58 1002.97 1002.71 1002.02 1001.03 1001.45
1014.11 1014.53 1014.77 1015.03 1015.22 1015.37 1015.38 1015.33 1015.29 1015.37 1015.41 1015.45 1015.54 1015.64 1015.72 1015.74 1015.87 1015.97 1015.52 1014.83 1015.05 1015.27 1014.45 1011.59 1007.32 1004.86 1003.63 1003.13 1003.33 1003.63 1004.01 1004.46 1005.01 1005.46 1005.37 1004.37 1003.37 1004.45 1006.22 1007.37 1006.97 1007.35 1006.65 1006.21 1005.68 1004.32 1004.30 1003.02 1001.84 1002.24 1002.03 1000.35 1001.19 1001.78
1013.81 1014.10 1014.48 1014.87 1014.96 1015.06 1014.98 1014.99 1015.06 1015.14 1015.09 1015.28 1015.46 1015.56 1015.60 1015.66 1015.76 1015.86 1015.77 1015.49 1015.26 1015.12 1014.40 1011.73 1007.72 1003.98 1003.30 1003.07 1003.02 1003.32 1003.49 1004.04 1004.31 1004.74 1004.64 1003.97 1003.28 1003.88 1004.08 1005.57 1005.66 1005.86 1005.79 1004.90 1004.66 1004.12 1004.06 1002.45 1002.52 1000.19 999.74 1000.04 1000.72 1001.34
1013.49 1013.76 1014.15 1014.51 1014.70 1014.73 1014.72 1014.61 1014.84 1014.94 1015.02 1015.13 1015.38 1015.49 1015.56 1015.72 1015.86 1015.71 1015.16 1015.21 1014.94 1014.85 1014.04 1011.74 1007.63 1004.48 1003.13 1003.15 1003.10 1003.03 1003.36 1003.59 1003.67 1003.69 1003.21 1003.08 1002.51 1002.66 1003.72 1004.48 1004.33 1003.96 1003.79 1002.91 1002.77 1002.62 1002.74 1002.89 1000.75 999.98 1000.15 1000.32 1000.74 1001.47
1013.19 1013.62 1013.90 1014.13 1014.44 1014.50 1014.40 1014.42 1014.66 1014.79 1014.92 1015.08 1015.26 1015.43 1015.71 1015.82 1015.61 1015.17 1015.11 1015.12 1014.99 1015.30 1013.73 1011.17 1008.11 1005.68 1004.33 1003.33 1002.94 1002.82 1003.10 1003.35 1002.91 1002.97 1002.82 1002.90 1002.35 1002.05 1002.11 1002.59 1003.18 1002.73 1002.42 1001.79 1001.50 1002.41 1002.21 1001.73 1000.81 1000.12 1000.49 1000.90 1001.30 1002.06
1013.05 1013.47 1013.71 1013.90 1014.04 1014.22 1014.19 1014.22 1014.50 1014.66 1014.87 1015.14 1015.40 1015.47 1015.24 1015.07 1015.04 1015.21 1015.35 1015.22 1014.88 1014.27 1013.30 1010.83 1008.46 1006.62 1005.44 1004.61 1003.71 1003.07 1002.97 1003.12 1002.12 1001.90 1001.70 1001.91 1001.72 1001.60 1001.47 1001.54 1001.78 1001.61 1001.04 1001.25 1001.54 1001.46 1001.16 1002.35 1002.19 1001.01 1001.62 1003.49 1004.34 1004.96
1012.82 1013.19 1013.49 1013.51 1013.73 1013.85 1013.82 1014.12 1014.27 1014.65 1015.10 1015.12 1014.96 1014.98 1015.16 1015.19 1015.25 1015.03 1014.76 1014.49 1013.71 1012.77 1011.10 1009.04 1007.72 1006.79 1005.79 1005.63 1005.20 1004.22 1003.31 1002.68 1001.78 1001.09 1001.25 1001.14 1001.31 1000.95 1001.88 1002.15 1002.05 1001.67 1001.54 1001.49 1001.72 1001.48 1001.50 1000.42 1000.45 1001.83 1002.99 1003.67 1004.80 1005.41
1012.59 1012.94 1013.06 1013.20 1013.49 1013.62 1013.59 1013.87 1014.11 1014.57 1014.54 1014.41 1014.40 1014.90 1015.23 1015.19 1014.78 1014.40 1013.81 1013.40 1012.64 1010.61 1008.33 1007.04 1006.23 1005.97 1005.87 1005.85 1006.03 1005.23 1003.97 1002.48 1001.32 1000.79 1000.48 1000.71 1000.50 999.85 1000.81 1001.67 1001.61 1000.99 1000.89 1001.13 1001.30 1000.91 1000.24 1000.03 1000.82 1001.85 1002.92 1003.65 1004.55 1005.25
1012.44 1012.68 1012.87 1013.11 1013.26 1013.24 1013.36 1013.67 1013.99 1014.14 1014.23 1014.33 1014.26 1014.51 1014.48 1014.52 1013.94 1013.13 1012.11 1011.36 1010.40 1008.91 1007.58 1006.81 1006.00 1005.16 1005.54 1006.20 1006.84 1006.70 1005.44 1003.34 1001.86 1000.76 1000.65 1001.15 1001.28 1000.54 1000.62 1000.93 1001.34 1001.17 1001.17 1001.05 1000.54 1000.73 1000.51 1001.02 1001.56 1002.38 1003.51 1004.28 1005.12 1006.11
1012.32 1012.43 1012.66 1012.85 1013.01 1013.15 1013.35 1013.66 1013.87 1014.20 1014.08 1013.85 1013.66 1013.79 1013.63 1012.85 1011.98 1010.85 1010.16 1009.20 1008.72 1008.26 1008.02 1007.59 1006.87 1005.83 1005.03 1005.92 1007.15 1007.40 1006.08 1004.65 1003.20 1002.28 1001.94 1002.69 1002.44 1001.46 1000.97 1000.66 1000.86 1000.69 1000.55 1000.53 1001.28 1001.52 1002.05 1002.40 1002.85 1003.58 1004.28 1004.84 1005.78 1007.06
1012.09 1012.28 1012.45 1012.71 1012.92 1013.09 1013.26 1013.53 1013.86 1014.04 1013.83 1013.59 1013.18 1012.45 1011.64 1010.37 1009.52 1009.41 1009.22 1009.00 1008.95 1008.66 1008.62 1008.12 1007.48 1006.84 1005.79 1005.17 1006.26 1006.20 1005.40 1004.97 1003.77 1002.36 1002.20 1002.14 1001.88 1002.45 1001.70 1001.71 1001.21 1001.16 1001.21 1001.76 1002.12 1002.71 1003.38 1004.13 1004.41 1005.12 1005.41 1006.03 1006.68 1007.29
1012.10 1012.28 1012.17 1012.17 1012.59 1012.89 1013.29 1013.68 1014.01 1013.98 1013.69 1013.28 1012.68 1011.42 1010.08 1009.54 1009.39 1009.40 1009.45 1009.35 1009.16 1009.07 1008.95 1008.79 1008.17 1007.15 1005.79 1004.95 1005.26 1005.51 1005.12 1005.10 1004.25 1002.72 1001.90 1002.24 1001.89 1001.89 1001.51 1001.57 1001.45 1001.58 1001.95 1002.44 1003.26 1003.92 1004.39 1005.14 1005.76 1006.29 1006.57 1006.80 1007.15 1007.69
1012.06 1011.65 1011.27 1011.85 1012.49 1013.04 1013.40 1013.62 1013.86 1013.79 1013.38 1012.61 1011.31 1010.20 1009.75 1009.53 1009.68 1009.74 1009.71 1009.58 1009.60 1009.65 1009.35 1008.96 1008.55 1007.06 1005.65 1004.79 1004.86 1004.39 1004.52 1005.26 1003.59 1003.97 1003.53 1002.45 1001.96 1001.85 1001.57 1001.80 1002.17 1002.43 1002.81 1003.22 1003.82 1004.46 1005.11 1005.73 1006.32 1006.93 1007.53 1007.89 1008.21 1008.74
1011.63 1011.24 1011.68 1012.15 1012.66 1013.25 1013.43 1013.51 1013.43 1013.20 1012.61 1011.54 1010.45 1009.28 1009.31 1009.39 1009.52 1009.57 1009.53 1009.66 1009.83 1009.76 1009.53 1008.95 1008.60 1007.45 1005.94 1004.65 1003.88 1003.75 1004.39 1004.93 1004.60 1004.58 1004.78 1003.50 1002.91 1002.58 1002.58 1002.93 1003.19 1003.53 1003.97 1004.42 1004.92 1005.47 1005.95 1006.55 1007.21 1007.86 1008.24 1008.70 1009.23 1009.66
1011.56 1011.60 1012.00 1012.34 1012.49 1012.71 1012.98 1013.27 1013.07 1012.39 1011.20 1010.09 1008.99 1008.63 1008.93 1009.16 1009.21 1009.38 1009.57 1009.71 1009.69 1009.60 1009.39 1008.54 1007.86 1006.56 1006.05 1004.68 1004.14 1003.61 1003.69 1003.77 1003.60 1004.59 1005.17 1003.40 1003.29 1003.56 1003.63 1003.78 1004.07 1004.52 1005.00 1005.29 1005.60 1006.11 1006.62 1006.98 1007.39 1007.89 1008.42 1008.89 1009.37 1009.84
1011.82 1011.87 1012.14 1012.40 1012.59 1012.45 1012.57 1012.69 1012.60 1011.82 1010.14 1008.81 1008.26 1008.45 1008.83 1009.06 1009.29 1009.43 1009.51 1009.53 1009.40 1009.17 1008.69 1007.84 1006.91 1006.05 1005.97 1005.64 1005.23 1004.35 1003.57 1003.17 1003.30 1003.73 1004.21 1003.65 1003.92 1004.13 1004.33 1004.62 1004.95 1005.15 1005.36 1005.66 1005.94 1006.26 1006.64 1007.00 1007.28 1007.60 1008.02 1008.61 1009.01 1009.38
1011.97 1012.10 1012.61 1012.76 1012.64 1012.46 1012.22 1011.85 1011.47 1010.00 1008.76 1008.15 1008.25 1008.57 1008.76 1009.05 1009.24 1009.25 1008.98 1008.81 1008.70 1008.08 1007.46 1006.58 1005.85 1005.84 1006.12 1006.27 1005.13 1005.43 1004.42 1003.56 1003.73 1004.13 1004.11 1004.02 1003.85 1003.94 1004.30 1004.66 1005.09 1005.37 1005.51 1005.65 1005.89 1006.24 1006.34 1006.57 1006.83 1007.15 1007.50 1007.86 1008.15 1008.50
1011.68 1012.06 1012.51 1012.88 1012.49 1012.22 1011.89 1011.25 1010.59 1009.59 1008.81 1007.83 1008.15 1008.30 1008.61 1008.86 1008.89 1008.78 1008.58 1008.10 1007.54 1006.65 1006.27 1006.12 1005.98 1005.56 1005.81 1006.01 1004.91 1005.65 1003.77 1003.33 1003.71 1003.54 1003.54 1003.80 1004.58 1005.03 1004.66 1004.24 1004.46 1004.99 1005.28 1005.51 1005.68 1005.98 1006.19 1006.38 1006.61 1006.78 1007.16 1007.48 1007.80 1008.06
1011.73 1011.82 1012.09 1012.25 1012.04 1011.70 1011.14 1010.43 1009.96 1008.82 1008.13 1007.72 1007.86 1008.23 1008.59 1008.66 1008.58 1008.53 1008.04 1007.33 1006.32 1005.35 1005.25 1005.34 1005.34 1005.34 1005.28 1005.14 1004.56 1003.44 1003.35 1003.27 1003.55 1003.47 1003.35 1003.79 1004.51 1004.50 1004.11 1003.92 1004.35 1004.76 1005.17 1005.37 1005.36 1005.71 1005.97 1005.94 1006.15 1006.58 1006.75 1007.07 1007.44 1007.85
1011.35 1011.72 1011.82 1011.63 1011.43 1010.86 1010.56 1009.90 1009.10 1008.45 1007.76 1007.40 1007.36 1007.84 1008.22 1008.21 1008.09 1007.89 1007.15 1006.25 1004.97 1004.26 1004.49 1004.23 1005.02 1005.20 1005.47 1004.98 1004.46 1003.42 1003.03 1002.88 1003.11 1003.24 1003.38 1003.50 1003.85 1004.02 1003.78 1004.23 1004.37 1004.29 1004.44 1004.73 1005.02 1005.36 1005.73 1005.91 1005.96 1006.31 1006.58 1006.99 1007.34 1007.75
1011.78 1011.58 1011.29 1010.81 1010.60 1010.36 1009.85 1009.27 1008.58 1008.27 1007.84 1007.74 1007.42 1007.54 1007.71 1007.59 1007.25 1006.30 1005.51 1004.82 1004.28 1003.85 1003.65 1003.77 1004.25 1004.49 1004.24 1004.32 1004.30 1004.01 1003.53 1003.28 1003.45 1003.55 1003.71 1003.92 1003.61 1003.79 1003.88 1003.90 1004.00 1004.05 1004.30 1005.00 1005.33 1005.53 1005.76 1005.74 1005.94 1006.13 1006.23 1006.62 1006.97 1007.33
1010.58 1010.00 1009.92 1009.34 1009.39 1009.25 1008.87 1008.58 1008.15 1007.86 1007.74 1007.65 1007.42 1007.04 1006.96 1006.83 1006.38 1005.57 1005.01 1004.50 1004.15 1003.79 1003.68 1003.76 1003.86 1004.08 1003.89 1003.70 1003.93 1003.99 1003.56 1003.64 1003.77 1003.78 1003.96 1003.64 1003.93 1003.66 1003.83 1003.94 1004.00 1004.03 1003.89 1004.03 1004.25 1004.89 1005.27 1005.51 1005.83 1006.05 1005.94 1006.15 1006.53 1006.80
1009.49 1008.59 1008.23 1007.96 1007.81 1007.87 1007.81 1007.59 1007.47 1007.60 1007.56 1007.22 1006.91 1006.64 1006.46 1006.12 1005.56 1005.41 1004.77 1004.25 1004.08 1003.86 1003.70 1003.76 1003.99 1004.04 1004.01 1003.99 1003.58 1003.58 1003.63 1003.46 1003.44 1003.30 1003.27 1003.12 1003.03 1003.07 1003.32 1003.57 1004.11 1004.14 1003.80 1003.96 1004.12 1004.24 1004.73 1005.12 1005.34 1005.35 1005.47 1005.56 1005.78 1005.90
1008.77 1008.15 1007.78 1007.40 1007.25 1007.27 1007.31 1007.22 1007.16 1007.15 1007.15 1007.03 1006.65 1006.29 1005.97 1005.81 1005.92 1005.28 1004.51 1003.91 1003.76 1003.65 1003.54 1003.76 1003.96 1004.04 1003.84 1003.80 1003.49 1003.45 1003.56 1003.55 1003.39 1003.24 1003.28 1003.26 1003.37 1003.28 1003.34 1003.56 1003.79 1003.88 1003.90 1003.99 1004.31 1004.41 1004.59 1004.75 1004.75 1004.80 1004.81 1004.98 1005.30 1005.36
1008.63 1008.12 1007.84 1007.62 1007.36 1007.11 1006.99 1006.95 1006.94 1006.77 1006.44 1006.44 1006.58 1006.25 1006.28 1005.57 1005.04 1004.58 1004.10 1003.88 1003.50 1003.61 1003.84 1004.01 1003.84 1003.62 1003.57 1003.70 1003.69 1003.75 1003.52 1003.46 1003.44 1003.68 1003.72 1003.84 1003.71 1003.64 1003.48 1003.66 1003.75 1003.68 1003.83 1004.32 1004.72 1004.46 1004.51 1004.77 1004.88 1004.82 1004.74 1004.72 1005.01 1005.20
1008.38 1008.24 1008.07 1007.79 1007.43 1007.07 1006.84 1006.92 1006.77 1006.51 1006.38 1006.53 1006.61 1006.39 1005.68 1005.32 1005.06 1004.77 1004.57 1004.35 1004.18 1004.15 1004.14 1004.14 1003.95 1004.00 1004.00 1004.04 1003.84 1003.79 1003.77 1003.84 1003.91 1003.94 1004.06 1004.25 1003.78 1003.53 1003.80 1003.78 1003.66 1003.96 1003.69 1003.80 1004.49 1004.69 1004.85 1004.89 1004.79 1004.93 1004.83 1004.72 1004.91 1004.95
1008.54 1008.44 1008.21 1007.74 1007.14 1006.67 1006.36 1006.28 1006.32 1006.48 1006.42 1006.25 1006.49 1006.42 1005.70 1005.33 1005.37 1005.80 1005.62 1005.28 1005.03 1005.05 1005.33 1005.11 1004.47 1004.18 1004.05 1003.96 1003.88 1003.98 1004.24 1004.26 1004.07 1003.95 1003.88 1003.88 1003.93 1003.91 1004.00 1004.02 1004.02 1004.57 1003.97 1003.67 1004.17 1004.32 1004.48 1004.61 1004.51 1004.49 1004.41 1004.46 1004.38 1004.49
1008.34 1008.04 1007.77 1007.38 1007.13 1006.71 1006.52 1006.53 1006.28 1006.18 1005.82 1006.14 1005.77 1005.76 1005.80 1005.85 1006.45 1006.98 1006.88 1006.46 1006.02 1005.88 1005.74 1005.71 1005.28 1005.26 1005.26 1004.69 1004.03 1004.03 1004.21 1004.20 1004.14 1003.87 1004.03 1004.16 1004.09 1004.09 1004.07 1004.27 1004.26 1004.33 1004.26 1004.24 1003.92 1004.19 1004.25 1003.82 1003.80 1003.82 1003.83 1003.93 1004.01 1004.19
1007.46 1007.19 1006.92 1006.25 1005.81 1006.14 1005.92 1005.96 1005.79 1006.27 1006.37 1006.53 1006.80 1006.74 1006.63 1006.73 1007.40 1007.55 1007.16 1006.83 1006.91 1006.66 1006.47 1006.29 1005.97 1005.50 1005.48 1004.94 1004.89 1004.57 1004.43 1004.23 1004.10 1004.27 1004.61 1004.34 1004.22 1004.25 1004.21 1004.29 1004.31 1004.07 1004.38 1004.47 1004.40 1004.11 1003.66 1003.73 1003.71 1003.54 1003.62 1003.75 1003.90 1004.05
Wind_Speed
13 12 11 10 9 8 9 11 9 9 9 9 8 5 5 8 6 3 5 4 3 4 13 15 18 14 9 5 4 6 9 7 6 8 4 2 2 0 4 3 4 3 7 5 6 7 3 5 5 9 7 7 6 16
12 11 10 9 8 8 9 10 8 8 8 8 7 5 5 5 4 4 3 4 5 4 8 18 19 19 18 14 8 3 4 7 5 4 3 3 2 1 3 4 4 3 4 7 5 3 2 4 12 11 14 7 11 7
12 11 9 9 9 8 8 9 8 8 7 7 6 5 5 5 4 6 2 3 3 5 10 10 13 17 18 19 14 5 2 4 5 5 3 1 2 5 0 5 4 4 5 5 7 11 7 4 2 9 16 10 11 14
12 10 9 9 9 8 8 9 8 6 7 7 7 5 5 5 4 6 2 2 2 3 5 7 15 9 16 12 18 17 13 11 5 5 4 3 4 6 6 7 3 2 5 8 2 10 11 9 8 11 19 19 19 9
11 10 10 9 7 7 8 8 6 6 7 7 5 6 5 5 4 3 3 3 2 2 4 9 20 16 15 10 5 9 11 7 3 2 3 5 5 6 4 6 2 4 4 5 4 6 5 10 10 8 14 19 16 15
11 10 9 6 5 6 8 8 6 6 6 5 5 5 5 4 5 1 3 4 4 2 3 6 8 9 11 5 9 6 3 4 3 2 4 5 5 2 3 5 14 17 9 15 8 0 2 14 13 19 29 14 15 14
11 10 8 6 6 7 6 9 6 6 4 4 4 4 4 5 3 2 2 2 5 2 2 6 6 4 10 8 3 3 9 4 4 4 6 7 7 4 6 4 13 10 16 9 14 12 3 21 14 8 4 12 23 18
11 8 8 7 7 6 6 5 6 4 4 3 4 4 3 6 0 2 1 4 3 2 3 5 6 5 0 4 4 4 3 3 4 4 3 4 5 3 4 4 6 7 6 9 13 13 9 13 7 2 3 8 12 16
9 8 7 7 7 6 5 5 6 5 4 4 3 8 3 1 2 1 3 2 1 1 3 4 4 4 6 3 3 3 4 3 4 7 8 3 4 4 8 7 6 8 7 7 4 3 7 4 4 10 5 2 7 5
8 7 7 6 6 5 5 7 6 6 6 8 3 2 3 2 11 7 1 1 1 3 4 5 4 6 5 4 5 2 4 4 3 7 3 7 7 5 6 10 7 7 6 6 3 8 7 18 21 10 10 16 20 29
8 6 6 6 6 5 5 7 8 8 9 2 3 1 2 3 1 2 2 2 3 4 5 6 8 8 3 1 3 4 3 4 4 6 7 5 6 9 16 13 8 5 5 11 6 7 14 6 9 14 14 18 24 27
6 5 6 6 4 4 7 8 12 4 2 2 3 4 2 2 2 2 3 3 5 5 5 5 6 7 3 3 2 5 4 4 6 2 6 5 1 4 19 15 11 8 8 9 14 13 7 10 15 15 12 15 15 17
5 4 6 7 4 2 8 9 10 5 5 1 2 3 2 2 2 5 6 4 4 5 2 6 6 2 5 3 4 4 7 4 9 4 3 2 4 11 13 13 9 10 11 12 4 10 17 15 12 13 11 10 11 16
5 4 7 7 5 3 8 8 9 6 1 2 3 4 4 4 6 7 8 4 3 3 5 5 4 4 3 4 5 5 6 5 4 2 2 3 4 16 8 5 5 5 2 5 12 16 16 15 13 14 13 12 16 13
3 4 4 7 8 6 9 7 8 1 1 2 2 4 7 8 4 3 2 1 3 3 3 3 3 3 4 3 3 2 2 2 4 4 4 5 14 15 5 3 7 8 8 11 12 13 13 12 12 14 12 12 12 13
5 3 6 9 10 8 10 6 1 1 1 2 4 5 6 6 1 2 2 2 2 2 0 0 2 4 4 3 2 4 2 3 5 5 5 3 2 2 7 6 5 8 11 11 10 9 11 12 12 11 9 9 9 10
6 3 8 13 12 12 11 3 2 3 2 3 5 7 7 5 0 1 1 1 1 2 2 0 3 6 5 3 3 5 2 3 4 6 4 1 4 5 7 9 9 10 10 10 11 11 10 8 9 8 7 6 8 9
3 4 13 15 11 6 1 2 2 3 4 5 6 5 1 3 3 3 2 2 2 2 1 3 2 3 5 3 4 3 4 2 0 4 8 3 3 6 7 9 8 8 9 9 9 8 9 8 7 5 7 8 9 7
4 4 15 16 5 3 3 3 2 3 7 7 8 6 3 1 1 2 1 1 2 1 2 3 4 3 3 4 3 1 7 7 9 6 13 7 7 7 7 7 7 8 9 7 7 6 6 7 7 5 5 5 6 4
3 3 17 12 2 1 3 2 2 3 5 3 1 2 2 1 1 1 2 3 3 3 3 4 4 3 5 5 6 5 4 3 4 10 0 5 5 7 6 5 5 7 5 5 5 7 6 5 7 7 7 6 7 6
4 6 9 2 1 2 1 2 4 5 4 3 2 4 1 1 1 2 2 4 3 3 3 5 3 5 3 2 7 5 6 2 4 1 9 8 6 7 6 7 7 4 4 4 4 5 3 4 5 5 5 5 5 5
4 9 3 0 2 2 3 3 3 5 4 1 3 1 0 2 2 2 2 2 3 3 3 2 3 5 3 6 8 15 5 4 3 6 7 7 4 3 5 6 5 5 4 4 4 5 4 3 5 5 4 4 5 5
9 3 2 3 2 1 4 2 3 4 2 2 2 3 1 1 1 0 2 3 3 3 3 2 5 4 4 10 14 4 6 9 5 5 5 6 8 6 4 1 4 5 4 2 4 4 3 6 6 6 5 5 4 3
3 3 4 3 5 1 1 3 4 3 3 1 1 2 1 2 2 2 3 3 5 4 5 8 3 2 4 11 6 5 5 5 5 4 4 5 5 2 2 4 1 5 6 5 4 3 4 4 5 4 4 4 5 5
4 2 4 1 1 2 2 3 2 2 1 3 3 1 2 2 3 3 1 3 3 3 3 5 7 7 1 4 3 5 4 5 5 5 5 4 3 4 0 3 4 4 4 3 4 3 5 4 5 5 6 5 7 7
2 5 5 7 4 4 4 3 3 2 2 1 2 2 1 2 3 2 2 2 3 3 4 3 2 2 4 4 4 3 3 4 3 5 4 2 4 4 3 2 2 3 5 4 5 5 6 5 3 6 6 7 9 7
2 3 3 3 3 3 3 2 2 2 1 3 2 2 3 3 0 2 4 3 2 1 2 2 2 3 1 3 1 2 2 2 3 2 1 2 1 4 4 3 5 1 6 5 3 4 8 5 8 11 7 4 5 6
3 2 1 3 2 2 1 3 4 3 2 3 3 2 1 3 0 3 3 2 3 3 2 4 4 4 3 0 2 2 3 3 4 2 2 3 4 5 6 5 4 4 3 4 3 4 3 3 3 4 3 6 5 6
3 1 2 4 1 1 0 0 1 2 2 1 2 2 0 3 3 2 3 4 4 2 3 2 5 4 1 1 3 3 4 4 1 4 5 2 2 2 2 2 3 4 4 4 4 4 2 1 2 2 3 3 4 2
3 1 0 1 2 2 2 3 2 3 1 2 1 4 2 2 2 6 6 5 4 3 4 4 2 5 4 3 2 5 4 5 4 3 4 6 3 2 4 4 4 10 2 7 6 4 2 2 3 2 2 1 2 3
1 1 1 3 3 2 3 2 3 3 3 2 4 4 3 4 6 8 8 9 8 7 6 5 6 3 3 5 3 4 3 3 4 6 4 6 3 3 2 4 4 7 7 3 6 6 6 5 5 6 7 9 8 5
2 4 3 3 2 4 3 3 3 2 3 4 4 4 4 4 4 6 5 6 8 9 7 9 8 3 5 11 6 5 3 0 2 2 3 2 2 3 4 3 2 4 8 8 5 3 3 7 6 6 5 7 7 7
4 5 6 5 3 5 6 5 3 3 4 3 4 3 3 3 4 2 4 3 2 2 3 4 7 6 8 10 11 9 9 5 3 9 7 6 1 1 2 0 2 2 5 5 5 6 3 6 6 3 4 4 4 3
Wind_Direction
224 233 243 257 267 280 297 299 293 295 297 305 295 269 284 290 291 226 292 302 274 271 288 282 294 300 320 326 15 321 310 3 337 42 81 101 107 180 305 242 126 270 290 271 212 201 240 28 21 92 248 318 294 100
221 226 238 255 265 278 293 298 287 285 284 299 292 255 270 302 310 219 277 326 324 252 283 312 283 269 262 265 296 315 227 285 86 38 358 143 130 183 104 303 284 237 52 306 302 147 35 337 129 150 84 53 258 69
213 224 231 245 262 270 288 292 278 274 280 290 287 249 262 271 276 215 317 324 305 276 277 241 247 250 230 223 219 244 264 224 93 157 174 176 136 113 216 223 267 269 356 271 2 14 2 278 200 107 80 79 281 269
212 218 229 243 250 265 284 289 282 254 273 282 271 245 249 267 264 212 229 345 268 281 279 289 352 325 303 256 206 213 244 269 272 128 156 189 180 173 186 289 82 245 330 337 300 346 359 114 314 165 158 181 207 165
205 219 230 239 246 261 288 287 268 241 266 276 252 243 238 254 242 238 252 227 215 270 302 300 305 269 253 246 209 216 222 230 229 291 246 250 165 199 191 130 68 209 211 330 248 220 149 264 287 318 261 192 157 135
202 216 229 228 242 266 290 296 254 246 257 255 253 227 238 229 180 239 260 173 196 215 285 291 324 275 270 240 200 228 232 214 215 188 255 267 304 78 253 165 185 240 266 171 204 273 93 305 290 281 250 148 151 128
200 210 207 228 244 262 283 295 237 242 245 233 225 229 230 196 199 252 317 304 324 184 261 283 269 226 213 256 174 240 203 215 197 219 224 255 276 184 173 197 193 223 226 177 151 129 112 229 260 316 164 131 138 158
196 203 216 238 249 253 261 277 221 228 209 208 214 222 217 149 323 275 207 243 314 258 260 277 275 268 182 236 218 193 191 208 227 229 284 236 289 225 213 210 226 202 236 252 181 180 174 215 333 16 103 125 153 163
193 206 215 226 240 264 270 228 204 197 192 181 224 147 120 211 210 198 115 23 2 266 284 267 280 312 348 292 260 157 169 220 213 210 234 218 249 246 199 180 218 238 216 217 352 85 72 108 248 295 156 198 170 218
188 206 233 209 224 255 281 192 184 175 163 141 163 186 190 196 114 131 70 187 225 222 239 256 288 275 331 348 291 168 144 222 225 222 176 216 244 234 164 170 194 213 249 105 30 332 332 168 216 201 53 76 56 42
184 207 220 208 223 227 231 181 163 136 137 214 196 121 54 114 213 227 172 240 186 245 218 240 230 251 269 271 311 300 262 219 226 234 181 194 213 229 160 174 208 213 262 290 273 252 270 231 185 109 95 91 85 88
191 211 203 200 223 232 188 175 160 150 194 210 112 101 134 209 220 235 192 200 224 256 223 217 234 196 231 77 341 307 278 277 221 320 185 190 231 276 158 170 200 198 196 244 263 265 35 47 110 113 120 120 122 125
201 213 203 193 209 226 174 167 178 248 145 148 197 145 181 144 198 215 199 204 229 216 303 346 329 292 144 99 52 2 316 289 326 323 36 108 302 7 150 169 204 227 225 226 306 64 68 68 81 109 104 105 117 103
216 211 188 191 194 201 175 175 197 217 254 213 173 154 215 186 232 203 222 246 241 355 348 333 300 296 222 140 118 186 242 277 312 257 227 111 37 356 350 50 135 170 196 118 89 80 76 72 69 68 78 87 95 107
204 211 201 203 193 184 160 164 169 207 254 238 214 219 218 237 239 185 293 353 19 352 359 344 289 246 281 142 157 203 176 283 257 239 166 190 145 193 166 113 89 83 76 83 87 83 83 84 80 77 74 87 96 101
193 202 213 175 172 155 142 139 142 280 263 251 238 260 251 275 326 37 13 357 17 335 106 183 308 309 261 199 122 203 106 219 277 284 162 154 112 138 121 118 105 91 97 99 98 103 95 96 102 106 101 90 90 100
182 256 154 147 148 143 158 136 159 204 247 251 239 247 259 264 213 174 222 213 29 345 247 291 252 226 296 212 204 194 215 142 305 340 329 138 125 95 84 75 76 91 92 92 93 93 94 89 89 91 97 102 87 85
253 126 138 136 137 124 160 205 195 184 240 246 253 277 137 151 183 218 196 161 168 199 203 236 308 266 279 239 226 142 133 167 80 294 299 208 107 88 91 98 90 92 92 95 101 99 95 91 94 89 95 96 95 94
33 133 150 157 156 152 152 172 212 239 234 252 248 238 157 206 206 68 103 215 219 319 296 238 242 238 258 292 344 178 145 156 123 264 251 159 115 94 89 88 93 100 105 109 110 120 132 141 134 125 124 129 131 144
333 202 164 178 206 209 137 154 201 251 264 254 291 111 144 186 79 204 219 216 188 211 207 230 233 316 332 340 321 325 352 28 111 125 325 146 118 118 128 129 113 118 120 146 164 154 160 157 163 160 168 182 158 167
168 148 151 163 247 263 279 175 223 244 259 258 116 156 136 183 239 246 248 184 194 222 225 241 294 339 48 1 9 316 270 202 115 320 189 157 164 161 150 138 149 167 157 176 132 131 165 141 150 129 146 147 152 157
103 154 108 109 277 214 246 233 261 297 266 201 159 121 350 302 305 311 311 236 229 231 219 300 301 308 45 112 239 263 216 138 177 138 90 90 66 338 180 161 148 145 134 150 145 159 170 147 128 139 146 145 143 159
154 158 114 177 241 193 260 221 251 238 262 227 168 126 211 291 276 264 268 248 271 238 164 178 266 287 22 303 295 224 171 189 158 134 153 173 177 184 155 149 150 146 139 152 153 165 141 156 147 159 172 161 165 133
83 139 178 203 187 232 60 262 224 267 281 280 177 113 231 241 209 238 246 233 247 177 166 211 187 326 283 259 260 50 21 76 73 54 45 79 89 26 182 133 214 155 167 171 168 176 147 179 160 152 152 147 144 161
101 260 125 292 202 212 209 271 207 251 328 348 340 116 233 192 259 255 263 12 352 286 178 183 162 200 308 96 63 357 11 76 77 62 14 357 52 9 18 121 157 170 128 123 137 143 163 184 171 187 204 186 174 179
136 193 179 183 173 202 186 202 250 244 165 212 278 243 180 250 256 280 42 360 24 39 60 58 87 29 358 59 163 202 171 144 129 90 290 261 239 185 181 246 280 171 165 169 158 217 172 158 37 266 208 160 169 184
231 168 182 234 178 171 210 104 132 130 247 227 245 228 224 247 329 358 313 349 9 217 151 131 132 137 199 278 309 63 323 294 323 134 296 288 326 179 186 156 116 22 46 37 23 132 176 192 203 229 233 179 218 215
344 339 270 189 209 198 272 175 179 188 226 227 247 233 287 18 8 263 254 261 272 284 232 148 174 201 213 220 268 156 202 249 287 295 266 23 31 41 99 109 123 103 77 85 72 16 63 75 51 9 206 168 199 195
252 236 269 225 208 292 199 94 192 248 263 49 359 331 360 228 210 263 318 358 345 45 21 10 197 210 157 191 243 261 278 283 244 27 355 239 227 265 354 126 188 193 154 136 73 68 86 89 10 30 56 47 99 127
157 62 337 287 250 229 185 181 251 236 155 134 52 329 316 310 21 24 16 7 22 27 350 341 40 22 24 23 359 21 108 103 60 49 0 329 222 77 51 27 12 5 240 162 154 154 159 217 224 255 218 240 200 217
57 95 285 233 257 215 177 141 191 214 304 248 159 242 242 100 68 28 9 8 11 28 35 328 348 4 337 356 43 5 35 3 50 66 34 2 72 72 45 60 43 5 336 23 151 178 178 205 221 227 218 218 237 192
176 206 205 201 263 295 12 1 313 257 96 113 61 49 47 76 63 354 353 12 23 14 4 359 356 32 17 303 329 320 1 183 312 8 78 46 52 24 355 64 96 33 357 337 359 15 240 206 207 229 230 208 169 180
209 218 218 247 127 165 207 195 132 81 52 54 53 48 47 55 85 352 353 18 143 269 329 310 312 338 8 19 28 24 349 18 67 49 16 6 44 288 312 216 88 169 275 276 277 299 313 351 310 234 177 138 110 54